contact:dominique.lefevre@mio.osupytheas.fr, maurice.libes@osupytheas.fr, didier.mallarino@osupytheas.fr
Project:EMSO http://www.emso-fr.org/EMSO-France
Depth: 2436.0 m
Title:EMSO Ligure Ouest : Data MII capteur MICROCAT
DateTime_Computer,Latitude,Longitude,Temperature,Conductivity,Pressure,DateTime_Instrument
DateTime_Computer,Latitude,Longitude,degC,S m-1,dbar,DateTime_Instrument
2019-08-24T00:00:24Z,42.805,6.029,13.2954,4.59973,2469.947,2019-8-24T02:00:46Z
2019-08-24T00:03:27Z,42.805,6.029,13.2957,4.59977,2469.96,2019-8-24T02:03:49Z
2019-08-24T00:06:31Z,42.805,6.029,13.2952,4.59968,2469.909,2019-8-24T02:06:52Z
2019-08-24T00:09:34Z,42.805,6.029,13.2955,4.59979,2469.96,2019-8-24T02:09:55Z
2019-08-24T00:12:37Z,42.805,6.029,13.2959,4.59965,2469.9,2019-8-24T02:12:58Z
2019-08-24T00:15:40Z,42.805,6.029,13.2954,4.59962,2469.937,2019-8-24T02:16:02Z
2019-08-24T00:18:43Z,42.805,6.029,13.2958,4.59973,2469.97,2019-8-24T02:19:05Z
2019-08-24T00:21:47Z,42.805,6.029,13.2958,4.59970,2469.937,2019-8-24T02:22:08Z
2019-08-24T00:24:50Z,42.805,6.029,13.2958,4.59965,2469.923,2019-8-24T02:25:11Z
2019-08-24T00:27:53Z,42.805,6.029,13.2958,4.59965,2469.937,2019-8-24T02:28:15Z
2019-08-24T00:30:56Z,42.805,6.029,13.2958,4.59961,2469.96,2019-8-24T02:31:18Z
2019-08-24T00:34:00Z,42.805,6.029,13.2957,4.59968,2469.96,2019-8-24T02:34:21Z
2019-08-24T00:37:03Z,42.805,6.029,13.2955,4.59966,2469.947,2019-8-24T02:37:24Z
2019-08-24T00:40:06Z,42.805,6.029,13.2954,4.59963,2469.923,2019-8-24T02:40:27Z
2019-08-24T00:43:09Z,42.805,6.029,13.2955,4.59965,2469.947,2019-8-24T02:43:31Z
2019-08-24T00:46:12Z,42.805,6.029,13.2953,4.59967,2469.947,2019-8-24T02:46:34Z
2019-08-24T00:49:16Z,42.805,6.029,13.2955,4.59967,2469.923,2019-8-24T02:49:37Z
2019-08-24T00:52:19Z,42.805,6.029,13.2954,4.59961,2469.923,2019-8-24T02:52:40Z
2019-08-24T00:55:22Z,42.805,6.029,13.2956,4.59967,2469.923,2019-8-24T02:55:43Z
2019-08-24T00:58:25Z,42.805,6.029,13.2953,4.59962,2469.923,2019-8-24T02:58:46Z
2019-08-24T01:01:28Z,42.805,6.029,13.2953,4.59969,2469.947,2019-8-24T03:01:50Z
2019-08-24T01:04:31Z,42.805,6.029,13.2958,4.59965,2469.947,2019-8-24T03:04:53Z
2019-08-24T01:07:35Z,42.805,6.029,13.2955,4.59964,2469.947,2019-8-24T03:07:56Z
2019-08-24T01:10:38Z,42.805,6.029,13.2957,4.59965,2469.923,2019-8-24T03:10:59Z
2019-08-24T01:13:41Z,42.805,6.029,13.2952,4.59963,2469.9,2019-8-24T03:14:03Z
2019-08-24T01:16:44Z,42.805,6.029,13.2957,4.59968,2469.947,2019-8-24T03:17:06Z
2019-08-24T01:19:47Z,42.805,6.029,13.2957,4.59967,2469.947,2019-8-24T03:20:09Z
2019-08-24T01:22:51Z,42.805,6.029,13.2955,4.59968,2469.923,2019-8-24T03:23:12Z
2019-08-24T01:25:54Z,42.805,6.029,13.2960,4.59965,2469.947,2019-8-24T03:26:15Z
2019-08-24T01:28:57Z,42.805,6.029,13.2958,4.59964,2469.9,2019-8-24T03:29:18Z
2019-08-24T01:32:00Z,42.805,6.029,13.2956,4.59968,2469.923,2019-8-24T03:32:22Z
2019-08-24T01:35:03Z,42.805,6.029,13.2956,4.59971,2469.947,2019-8-24T03:35:25Z
2019-08-24T01:38:07Z,42.805,6.029,13.2956,4.59972,2469.9,2019-8-24T03:38:28Z
2019-08-24T01:41:10Z,42.805,6.029,13.2954,4.59973,2469.9,2019-8-24T03:41:31Z
2019-08-24T01:44:13Z,42.805,6.029,13.2957,4.59972,2469.923,2019-8-24T03:44:34Z
2019-08-24T01:47:16Z,42.805,6.029,13.2953,4.59965,2469.923,2019-8-24T03:47:38Z
2019-08-24T01:50:19Z,42.805,6.029,13.2958,4.59971,2469.923,2019-8-24T03:50:41Z
2019-08-24T01:53:23Z,42.805,6.029,13.2951,4.59970,2469.923,2019-8-24T03:53:44Z
2019-08-24T01:56:26Z,42.805,6.029,13.2954,4.59970,2469.937,2019-8-24T03:56:47Z
2019-08-24T01:59:29Z,42.805,6.029,13.2953,4.59971,2469.923,2019-8-24T03:59:51Z
2019-08-24T02:02:32Z,42.805,6.029,13.2958,4.59968,2469.923,2019-8-24T04:02:54Z
2019-08-24T02:05:36Z,42.805,6.029,13.2958,4.59974,2469.923,2019-8-24T04:05:57Z
2019-08-24T02:08:39Z,42.805,6.029,13.2959,4.59971,2469.947,2019-8-24T04:09:00Z
2019-08-24T02:11:42Z,42.805,6.029,13.2958,4.59966,2469.923,2019-8-24T04:12:03Z
2019-08-24T02:14:45Z,42.805,6.029,13.2958,4.59977,2469.914,2019-8-24T04:15:07Z
2019-08-24T02:17:48Z,42.805,6.029,13.2957,4.59973,2469.947,2019-8-24T04:18:10Z
2019-08-24T02:20:52Z,42.805,6.029,13.2958,4.59967,2469.914,2019-8-24T04:21:13Z
2019-08-24T02:23:55Z,42.805,6.029,13.2956,4.59958,2469.923,2019-8-24T04:24:16Z
2019-08-24T02:26:58Z,42.805,6.029,13.2958,4.59956,2469.923,2019-8-24T04:27:19Z
2019-08-24T02:30:01Z,42.805,6.029,13.2959,4.59958,2469.923,2019-8-24T04:30:23Z
2019-08-24T02:33:04Z,42.805,6.029,13.2954,4.59958,2469.914,2019-8-24T04:33:26Z
2019-08-24T02:36:08Z,42.805,6.029,13.2961,4.59960,2469.923,2019-8-24T04:36:29Z
2019-08-24T02:39:11Z,42.805,6.029,13.2958,4.59960,2469.9,2019-8-24T04:39:32Z
2019-08-24T02:42:14Z,42.805,6.029,13.2958,4.59958,2469.923,2019-8-24T04:42:35Z
2019-08-24T02:45:17Z,42.805,6.029,13.2957,4.59964,2469.914,2019-8-24T04:45:39Z
2019-08-24T02:48:20Z,42.805,6.029,13.2955,4.59963,2469.923,2019-8-24T04:48:42Z
2019-08-24T02:51:24Z,42.805,6.029,13.2956,4.59963,2469.923,2019-8-24T04:51:45Z
2019-08-24T02:54:27Z,42.805,6.029,13.2958,4.59960,2469.923,2019-8-24T04:54:48Z
2019-08-24T02:57:30Z,42.805,6.029,13.2958,4.59960,2469.914,2019-8-24T04:57:51Z
2019-08-24T03:00:33Z,42.805,6.029,13.2954,4.59964,2469.9,2019-8-24T05:00:54Z
2019-08-24T03:03:36Z,42.805,6.029,13.2957,4.59966,2469.914,2019-8-24T05:03:58Z
2019-08-24T03:06:39Z,42.805,6.029,13.2957,4.59960,2469.9,2019-8-24T05:07:01Z
2019-08-24T03:09:43Z,42.805,6.029,13.2960,4.59958,2469.937,2019-8-24T05:10:04Z
2019-08-24T03:12:46Z,42.805,6.029,13.2960,4.59961,2469.947,2019-8-24T05:13:07Z
2019-08-24T03:15:49Z,42.805,6.029,13.2953,4.59970,2469.9,2019-8-24T05:16:11Z
2019-08-24T03:18:52Z,42.805,6.029,13.2957,4.59958,2469.914,2019-8-24T05:19:14Z
2019-08-24T03:21:55Z,42.805,6.029,13.2960,4.59957,2469.937,2019-8-24T05:22:17Z
2019-08-24T03:24:59Z,42.805,6.029,13.2954,4.59958,2469.9,2019-8-24T05:25:20Z
2019-08-24T03:28:02Z,42.805,6.029,13.2959,4.59964,2469.9,2019-8-24T05:28:23Z
2019-08-24T03:31:05Z,42.805,6.029,13.2957,4.59961,2469.923,2019-8-24T05:31:26Z
2019-08-24T03:34:08Z,42.805,6.029,13.2954,4.59960,2469.9,2019-8-24T05:34:30Z
2019-08-24T03:37:11Z,42.805,6.029,13.2958,4.59958,2469.914,2019-8-24T05:37:33Z
2019-08-24T03:40:15Z,42.805,6.029,13.2955,4.59966,2469.876,2019-8-24T05:40:36Z
2019-08-24T03:43:18Z,42.805,6.029,13.2960,4.59966,2469.876,2019-8-24T05:43:39Z
2019-08-24T03:46:21Z,42.805,6.029,13.2957,4.59963,2469.914,2019-8-24T05:46:42Z
2019-08-24T03:49:24Z,42.805,6.029,13.2959,4.59961,2469.853,2019-8-24T05:49:46Z
2019-08-24T03:52:27Z,42.805,6.029,13.2956,4.59958,2469.9,2019-8-24T05:52:49Z
2019-08-24T03:55:31Z,42.805,6.029,13.2953,4.59966,2469.914,2019-8-24T05:55:52Z
2019-08-24T03:58:34Z,42.805,6.029,13.2958,4.59967,2469.89,2019-8-24T05:58:55Z
2019-08-24T04:01:37Z,42.805,6.029,13.2958,4.59966,2469.876,2019-8-24T06:01:59Z
2019-08-24T04:04:41Z,42.805,6.029,13.2961,4.59971,2469.9,2019-8-24T06:05:02Z
2019-08-24T04:07:44Z,42.805,6.029,13.2960,4.59967,2469.9,2019-8-24T06:08:05Z
2019-08-24T04:10:47Z,42.805,6.029,13.2966,4.59958,2469.914,2019-8-24T06:11:08Z
2019-08-24T04:13:50Z,42.805,6.029,13.2962,4.59958,2469.89,2019-8-24T06:14:12Z
2019-08-24T04:16:53Z,42.805,6.029,13.2961,4.59962,2469.9,2019-8-24T06:17:15Z
2019-08-24T04:19:57Z,42.805,6.029,13.2958,4.59971,2469.89,2019-8-24T06:20:18Z
2019-08-24T04:23:00Z,42.805,6.029,13.2956,4.59962,2469.9,2019-8-24T06:23:21Z
2019-08-24T04:26:03Z,42.805,6.029,13.2965,4.59961,2469.914,2019-8-24T06:26:24Z
2019-08-24T04:29:06Z,42.805,6.029,13.2958,4.59984,2469.876,2019-8-24T06:29:28Z
2019-08-24T04:32:09Z,42.805,6.029,13.2958,4.59983,2469.89,2019-8-24T06:32:31Z
2019-08-24T04:35:13Z,42.805,6.029,13.2958,4.59977,2469.867,2019-8-24T06:35:34Z
2019-08-24T04:38:16Z,42.805,6.029,13.2968,4.59972,2469.89,2019-8-24T06:38:37Z
2019-08-24T04:41:19Z,42.805,6.029,13.2960,4.59966,2469.876,2019-8-24T06:41:40Z
2019-08-24T04:44:22Z,42.805,6.029,13.2966,4.59968,2469.853,2019-8-24T06:44:44Z
2019-08-24T04:47:25Z,42.805,6.029,13.2965,4.59961,2469.876,2019-8-24T06:47:47Z
2019-08-24T04:50:29Z,42.805,6.029,13.2964,4.59964,2469.876,2019-8-24T06:50:50Z
2019-08-24T04:53:32Z,42.805,6.029,13.2970,4.59985,2469.876,2019-8-24T06:53:53Z
2019-08-24T04:56:35Z,42.805,6.029,13.2965,4.59977,2469.89,2019-8-24T06:56:56Z
2019-08-24T04:59:38Z,42.805,6.029,13.2957,4.59981,2469.904,2019-8-24T07:00:00Z
2019-08-24T05:02:41Z,42.805,6.029,13.2957,4.59964,2469.853,2019-8-24T07:03:03Z
2019-08-24T05:05:45Z,42.805,6.029,13.2960,4.59961,2469.89,2019-8-24T07:06:06Z
2019-08-24T05:08:48Z,42.805,6.029,13.2964,4.59968,2469.844,2019-8-24T07:09:09Z
2019-08-24T05:11:51Z,42.805,6.029,13.2956,4.59961,2469.853,2019-8-24T07:12:12Z
2019-08-24T05:14:54Z,42.805,6.029,13.2959,4.59957,2469.844,2019-8-24T07:15:16Z
2019-08-24T05:17:57Z,42.805,6.029,13.2962,4.59958,2469.89,2019-8-24T07:18:19Z
2019-08-24T05:21:01Z,42.805,6.029,13.2959,4.59966,2469.876,2019-8-24T07:21:22Z
2019-08-24T05:24:04Z,42.805,6.029,13.2958,4.59964,2469.876,2019-8-24T07:24:25Z
2019-08-24T05:27:07Z,42.805,6.029,13.2962,4.59960,2469.876,2019-8-24T07:27:28Z
2019-08-24T05:30:10Z,42.805,6.029,13.2966,4.59973,2469.844,2019-8-24T07:30:31Z
2019-08-24T05:33:13Z,42.805,6.029,13.2961,4.59979,2469.853,2019-8-24T07:33:35Z
2019-08-24T05:36:17Z,42.805,6.029,13.2971,4.59976,2469.844,2019-8-24T07:36:38Z
2019-08-24T05:39:20Z,42.805,6.029,13.2961,4.59958,2469.867,2019-8-24T07:39:41Z
2019-08-24T05:42:23Z,42.805,6.029,13.2964,4.59956,2469.853,2019-8-24T07:42:44Z
2019-08-24T05:45:26Z,42.805,6.029,13.2974,4.59958,2469.867,2019-8-24T07:45:47Z
2019-08-24T05:48:29Z,42.805,6.029,13.2957,4.59958,2469.83,2019-8-24T07:48:51Z
2019-08-24T05:51:32Z,42.805,6.029,13.2963,4.59964,2469.83,2019-8-24T07:51:54Z
2019-08-24T05:54:36Z,42.805,6.029,13.2968,4.59964,2469.844,2019-8-24T07:54:57Z
2019-08-24T05:57:39Z,42.805,6.029,13.2961,4.59961,2469.853,2019-8-24T07:58:00Z
2019-08-24T06:00:42Z,42.805,6.029,13.2962,4.59964,2469.853,2019-8-24T08:01:04Z
2019-08-24T06:03:45Z,42.805,6.029,13.2964,4.59961,2469.89,2019-8-24T08:04:07Z
2019-08-24T06:06:49Z,42.805,6.029,13.2957,4.59986,2469.844,2019-8-24T08:07:10Z
2019-08-24T06:09:52Z,42.805,6.029,13.2958,4.59960,2469.867,2019-8-24T08:10:13Z
2019-08-24T06:12:55Z,42.805,6.029,13.2959,4.59961,2469.867,2019-8-24T08:13:16Z
2019-08-24T06:15:58Z,42.805,6.029,13.2957,4.59972,2469.853,2019-8-24T08:16:19Z
2019-08-24T06:19:01Z,42.805,6.029,13.2961,4.59985,2469.867,2019-8-24T08:19:23Z
2019-08-24T06:22:04Z,42.805,6.029,13.2970,4.59960,2469.867,2019-8-24T08:22:26Z
2019-08-24T06:25:08Z,42.805,6.029,13.2960,4.59971,2469.821,2019-8-24T08:25:29Z
2019-08-24T06:28:11Z,42.805,6.029,13.2957,4.59958,2469.844,2019-8-24T08:28:32Z
2019-08-24T06:31:14Z,42.805,6.029,13.2957,4.59958,2469.83,2019-8-24T08:31:35Z
2019-08-24T06:34:18Z,42.805,6.029,13.2961,4.59965,2469.853,2019-8-24T08:34:39Z
2019-08-24T06:37:21Z,42.805,6.029,13.2962,4.59962,2469.83,2019-8-24T08:37:42Z
2019-08-24T06:40:24Z,42.805,6.029,13.2956,4.59966,2469.867,2019-8-24T08:40:45Z
2019-08-24T06:43:27Z,42.805,6.029,13.2956,4.59983,2469.844,2019-8-24T08:43:49Z
2019-08-24T06:46:30Z,42.805,6.029,13.2962,4.59982,2469.821,2019-8-24T08:46:52Z
2019-08-24T06:49:34Z,42.805,6.029,13.2963,4.59961,2469.821,2019-8-24T08:49:55Z
2019-08-24T06:52:37Z,42.805,6.029,13.2956,4.59964,2469.853,2019-8-24T08:52:58Z
2019-08-24T06:55:40Z,42.805,6.029,13.2958,4.59964,2469.853,2019-8-24T08:56:01Z
2019-08-24T06:58:43Z,42.805,6.029,13.2961,4.59962,2469.844,2019-8-24T08:59:05Z
2019-08-24T07:01:46Z,42.805,6.029,13.2957,4.59962,2469.867,2019-8-24T09:02:08Z
2019-08-24T07:04:49Z,42.805,6.029,13.2957,4.59964,2469.853,2019-8-24T09:05:11Z
2019-08-24T07:07:53Z,42.805,6.029,13.2959,4.59958,2469.806,2019-8-24T09:08:14Z
2019-08-24T07:10:56Z,42.805,6.029,13.2956,4.59958,2469.853,2019-8-24T09:11:17Z
2019-08-24T07:13:59Z,42.805,6.029,13.2960,4.59959,2469.83,2019-8-24T09:14:20Z
2019-08-24T07:17:02Z,42.805,6.029,13.2958,4.59965,2469.83,2019-8-24T09:17:24Z
2019-08-24T07:20:05Z,42.805,6.029,13.2961,4.59959,2469.844,2019-8-24T09:20:27Z
2019-08-24T07:23:09Z,42.805,6.029,13.2958,4.59958,2469.844,2019-8-24T09:23:30Z
2019-08-24T07:26:12Z,42.805,6.029,13.2959,4.59959,2469.867,2019-8-24T09:26:33Z
2019-08-24T07:29:15Z,42.805,6.029,13.2957,4.59957,2469.821,2019-8-24T09:29:36Z
2019-08-24T07:32:18Z,42.805,6.029,13.2957,4.59971,2469.867,2019-8-24T09:32:40Z
2019-08-24T07:35:21Z,42.805,6.029,13.2959,4.59984,2469.844,2019-8-24T09:35:43Z
2019-08-24T07:38:25Z,42.805,6.029,13.2959,4.59962,2469.844,2019-8-24T09:38:46Z
2019-08-24T07:41:28Z,42.805,6.029,13.2958,4.59960,2469.83,2019-8-24T09:41:49Z
2019-08-24T07:44:31Z,42.805,6.029,13.2958,4.59960,2469.797,2019-8-24T09:44:52Z
2019-08-24T07:47:34Z,42.805,6.029,13.2960,4.59966,2469.83,2019-8-24T09:47:56Z
2019-08-24T07:50:37Z,42.805,6.029,13.2957,4.59963,2469.844,2019-8-24T09:50:59Z
2019-08-24T07:53:41Z,42.805,6.029,13.2954,4.59958,2469.853,2019-8-24T09:54:02Z
2019-08-24T07:56:44Z,42.805,6.029,13.2953,4.59964,2469.806,2019-8-24T09:57:05Z
2019-08-24T07:59:47Z,42.805,6.029,13.2958,4.59962,2469.844,2019-8-24T10:00:08Z
2019-08-24T08:02:50Z,42.805,6.029,13.2961,4.59961,2469.876,2019-8-24T10:03:12Z
2019-08-24T08:05:53Z,42.805,6.029,13.2956,4.59966,2469.853,2019-8-24T10:06:15Z
2019-08-24T08:08:57Z,42.805,6.029,13.2958,4.59967,2469.844,2019-8-24T10:09:18Z
2019-08-24T08:12:00Z,42.805,6.029,13.2955,4.59961,2469.83,2019-8-24T10:12:21Z
2019-08-24T08:15:03Z,42.805,6.029,13.2957,4.59963,2469.853,2019-8-24T10:15:24Z
2019-08-24T08:18:06Z,42.805,6.029,13.2958,4.59965,2469.806,2019-8-24T10:18:28Z
2019-08-24T08:21:09Z,42.805,6.029,13.2951,4.59974,2469.806,2019-8-24T10:21:31Z
2019-08-24T08:24:13Z,42.805,6.029,13.2953,4.59974,2469.83,2019-8-24T10:24:34Z
2019-08-24T08:27:16Z,42.805,6.029,13.2958,4.60011,2469.83,2019-8-24T10:27:37Z
2019-08-24T08:30:19Z,42.805,6.029,13.2959,4.59991,2469.83,2019-8-24T10:30:40Z
2019-08-24T08:33:22Z,42.805,6.029,13.2967,4.59980,2469.853,2019-8-24T10:33:44Z
2019-08-24T08:36:25Z,42.805,6.029,13.2983,4.59966,2469.867,2019-8-24T10:36:47Z
2019-08-24T08:39:29Z,42.805,6.029,13.2996,4.59970,2469.89,2019-8-24T10:39:50Z
2019-08-24T08:42:32Z,42.805,6.029,13.2993,4.59998,2469.853,2019-8-24T10:42:53Z
2019-08-24T08:45:35Z,42.805,6.029,13.3004,4.59994,2469.83,2019-8-24T10:45:57Z
2019-08-24T08:48:39Z,42.805,6.029,13.2995,4.60029,2469.844,2019-8-24T10:49:00Z
2019-08-24T08:51:42Z,42.805,6.029,13.3006,4.60031,2469.89,2019-8-24T10:52:03Z
2019-08-24T08:54:45Z,42.805,6.029,13.3005,4.60019,2469.83,2019-8-24T10:55:06Z
2019-08-24T08:57:48Z,42.805,6.029,13.3011,4.60018,2469.867,2019-8-24T10:58:10Z
2019-08-24T09:00:51Z,42.805,6.029,13.3004,4.59991,2469.867,2019-8-24T11:01:13Z
2019-08-24T09:03:55Z,42.805,6.029,13.2990,4.60019,2469.83,2019-8-24T11:04:16Z
2019-08-24T09:06:58Z,42.805,6.029,13.2991,4.60043,2469.876,2019-8-24T11:07:19Z
2019-08-24T09:10:01Z,42.805,6.029,13.3004,4.60029,2469.844,2019-8-24T11:10:22Z
2019-08-24T09:13:04Z,42.805,6.029,13.2993,4.60023,2469.853,2019-8-24T11:13:26Z
2019-08-24T09:16:07Z,42.805,6.029,13.2999,4.60023,2469.844,2019-8-24T11:16:29Z
2019-08-24T09:19:11Z,42.805,6.029,13.3000,4.60032,2469.867,2019-8-24T11:19:32Z
2019-08-24T09:22:14Z,42.805,6.029,13.2998,4.60031,2469.853,2019-8-24T11:22:35Z
2019-08-24T09:25:17Z,42.805,6.029,13.2996,4.60016,2469.844,2019-8-24T11:25:38Z
2019-08-24T09:28:20Z,42.805,6.029,13.3009,4.60072,2469.853,2019-8-24T11:28:42Z
2019-08-24T09:31:23Z,42.805,6.029,13.3027,4.60058,2469.83,2019-8-24T11:31:45Z
2019-08-24T09:34:27Z,42.805,6.029,13.3031,4.60040,2469.876,2019-8-24T11:34:48Z
2019-08-24T09:37:30Z,42.805,6.029,13.3048,4.60029,2469.876,2019-8-24T11:37:51Z
2019-08-24T09:40:33Z,42.805,6.029,13.3060,4.60017,2469.83,2019-8-24T11:40:54Z
2019-08-24T09:43:36Z,42.805,6.029,13.3033,4.60026,2469.89,2019-8-24T11:43:58Z
2019-08-24T09:46:39Z,42.805,6.029,13.3039,4.60008,2469.844,2019-8-24T11:47:01Z
2019-08-24T09:49:43Z,42.805,6.029,13.3028,4.60028,2469.853,2019-8-24T11:50:04Z
2019-08-24T09:52:46Z,42.805,6.029,13.3035,4.60048,2469.89,2019-8-24T11:53:07Z
2019-08-24T09:55:49Z,42.805,6.029,13.3004,4.60037,2469.876,2019-8-24T11:56:10Z
2019-08-24T09:58:52Z,42.805,6.029,13.3018,4.60041,2469.89,2019-8-24T11:59:14Z
2019-08-24T10:01:55Z,42.805,6.029,13.3029,4.60030,2469.853,2019-8-24T12:02:17Z
2019-08-24T10:04:59Z,42.805,6.029,13.3011,4.60052,2469.876,2019-8-24T12:05:20Z
2019-08-24T10:08:02Z,42.805,6.029,13.2998,4.60044,2469.876,2019-8-24T12:08:23Z
2019-08-24T10:11:05Z,42.805,6.029,13.3014,4.60021,2469.876,2019-8-24T12:11:26Z
2019-08-24T10:14:08Z,42.805,6.029,13.3026,4.60062,2469.914,2019-8-24T12:14:30Z
2019-08-24T10:17:11Z,42.805,6.029,13.3035,4.60015,2469.876,2019-8-24T12:17:33Z
2019-08-24T10:20:15Z,42.805,6.029,13.3026,4.60014,2469.867,2019-8-24T12:20:36Z
2019-08-24T10:23:18Z,42.805,6.029,13.3025,4.60007,2469.89,2019-8-24T12:23:39Z
2019-08-24T10:26:21Z,42.805,6.029,13.3019,4.60013,2469.876,2019-8-24T12:26:42Z
2019-08-24T10:29:24Z,42.805,6.029,13.3014,4.59999,2469.923,2019-8-24T12:29:46Z
2019-08-24T10:32:27Z,42.805,6.029,13.2986,4.60044,2469.89,2019-8-24T12:32:49Z
2019-08-24T10:35:31Z,42.805,6.029,13.3013,4.59986,2469.9,2019-8-24T12:35:52Z
2019-08-24T10:38:34Z,42.805,6.029,13.3036,4.60006,2469.914,2019-8-24T12:38:55Z
2019-08-24T10:41:37Z,42.805,6.029,13.3004,4.59995,2469.89,2019-8-24T12:41:58Z
2019-08-24T10:44:40Z,42.805,6.029,13.3019,4.60003,2469.876,2019-8-24T12:45:02Z
2019-08-24T10:47:43Z,42.805,6.029,13.2990,4.60003,2469.914,2019-8-24T12:48:05Z
2019-08-24T10:50:47Z,42.805,6.029,13.2997,4.60057,2469.89,2019-8-24T12:51:08Z
2019-08-24T10:53:50Z,42.805,6.029,13.3001,4.60024,2469.937,2019-8-24T12:54:11Z
2019-08-24T10:56:53Z,42.805,6.029,13.3019,4.60064,2469.876,2019-8-24T12:57:14Z
2019-08-24T10:59:56Z,42.805,6.029,13.2999,4.60038,2469.9,2019-8-24T13:00:18Z
2019-08-24T11:02:59Z,42.805,6.029,13.3006,4.60022,2469.89,2019-8-24T13:03:21Z
2019-08-24T11:06:03Z,42.805,6.029,13.2988,4.60013,2469.914,2019-8-24T13:06:24Z
2019-08-24T11:09:06Z,42.805,6.029,13.2990,4.60044,2469.937,2019-8-24T13:09:27Z
2019-08-24T11:12:09Z,42.805,6.029,13.2974,4.60013,2469.937,2019-8-24T13:12:30Z
2019-08-24T11:15:12Z,42.805,6.029,13.2976,4.59999,2469.9,2019-8-24T13:15:34Z
2019-08-24T11:18:15Z,42.805,6.029,13.3006,4.59997,2469.923,2019-8-24T13:18:37Z
2019-08-24T11:21:19Z,42.805,6.029,13.2994,4.60009,2469.914,2019-8-24T13:21:40Z
2019-08-24T11:24:22Z,42.805,6.029,13.2978,4.60008,2469.9,2019-8-24T13:24:43Z
2019-08-24T11:27:25Z,42.805,6.029,13.2981,4.60011,2469.914,2019-8-24T13:27:46Z
2019-08-24T11:30:28Z,42.805,6.029,13.2982,4.60016,2469.914,2019-8-24T13:30:50Z
2019-08-24T11:33:31Z,42.805,6.029,13.2990,4.60009,2469.876,2019-8-24T13:33:53Z
2019-08-24T11:36:35Z,42.805,6.029,13.2997,4.60006,2469.923,2019-8-24T13:36:56Z
2019-08-24T11:39:38Z,42.805,6.029,13.2985,4.59994,2469.89,2019-8-24T13:39:59Z
2019-08-24T11:42:41Z,42.805,6.029,13.2978,4.59999,2469.96,2019-8-24T13:43:02Z
2019-08-24T11:45:44Z,42.805,6.029,13.2979,4.60014,2469.914,2019-8-24T13:46:06Z
2019-08-24T11:48:47Z,42.805,6.029,13.2986,4.60004,2469.937,2019-8-24T13:49:09Z
2019-08-24T11:51:51Z,42.805,6.029,13.2988,4.59993,2469.923,2019-8-24T13:52:12Z
2019-08-24T11:54:54Z,42.805,6.029,13.2977,4.59997,2469.937,2019-8-24T13:55:15Z
2019-08-24T11:57:57Z,42.805,6.029,13.2988,4.59986,2469.914,2019-8-24T13:58:18Z
2019-08-24T12:01:00Z,42.805,6.029,13.2979,4.60001,2469.914,2019-8-24T14:01:22Z
2019-08-24T12:04:04Z,42.805,6.029,13.2973,4.60006,2469.876,2019-8-24T14:04:25Z
2019-08-24T12:07:07Z,42.805,6.029,13.2976,4.59998,2469.914,2019-8-24T14:07:28Z
2019-08-24T12:10:10Z,42.805,6.029,13.3015,4.59976,2469.923,2019-8-24T14:10:31Z
2019-08-24T12:13:13Z,42.805,6.029,13.3015,4.59986,2469.937,2019-8-24T14:13:35Z
2019-08-24T12:16:16Z,42.805,6.029,13.2990,4.59990,2469.96,2019-8-24T14:16:38Z
2019-08-24T12:19:19Z,42.805,6.029,13.2991,4.60019,2469.937,2019-8-24T14:19:41Z
2019-08-24T12:22:23Z,42.805,6.029,13.3016,4.60011,2469.9,2019-8-24T14:22:44Z
2019-08-24T12:25:26Z,42.805,6.029,13.3017,4.59987,2469.923,2019-8-24T14:25:47Z
2019-08-24T12:28:29Z,42.805,6.029,13.2993,4.59984,2469.9,2019-8-24T14:28:51Z
2019-08-24T12:31:32Z,42.805,6.029,13.3005,4.59973,2469.923,2019-8-24T14:31:54Z
2019-08-24T12:34:36Z,42.805,6.029,13.3002,4.60003,2469.9,2019-8-24T14:34:57Z
2019-08-24T12:37:39Z,42.805,6.029,13.2993,4.60007,2469.914,2019-8-24T14:38:00Z
2019-08-24T12:40:42Z,42.805,6.029,13.3006,4.59984,2469.96,2019-8-24T14:41:03Z
2019-08-24T12:43:45Z,42.805,6.029,13.3030,4.59982,2469.937,2019-8-24T14:44:07Z
2019-08-24T12:46:48Z,42.805,6.029,13.2986,4.59996,2469.937,2019-8-24T14:47:10Z
2019-08-24T12:49:52Z,42.805,6.029,13.2983,4.60004,2469.947,2019-8-24T14:50:13Z
2019-08-24T12:52:55Z,42.805,6.029,13.3029,4.60008,2469.937,2019-8-24T14:53:16Z
2019-08-24T12:55:58Z,42.805,6.029,13.3025,4.60001,2469.947,2019-8-24T14:56:19Z
2019-08-24T12:59:01Z,42.805,6.029,13.3044,4.60001,2469.937,2019-8-24T14:59:23Z
2019-08-24T13:02:04Z,42.805,6.029,13.3043,4.60016,2469.923,2019-8-24T15:02:26Z
2019-08-24T13:05:08Z,42.805,6.029,13.3031,4.60021,2469.9,2019-8-24T15:05:29Z
2019-08-24T13:08:11Z,42.805,6.029,13.3031,4.60008,2469.937,2019-8-24T15:08:32Z
2019-08-24T13:11:14Z,42.805,6.029,13.3033,4.60005,2469.914,2019-8-24T15:11:35Z
2019-08-24T13:14:17Z,42.805,6.029,13.3024,4.60010,2469.914,2019-8-24T15:14:39Z
2019-08-24T13:17:20Z,42.805,6.029,13.3024,4.60005,2469.937,2019-8-24T15:17:42Z
2019-08-24T13:20:24Z,42.805,6.029,13.3010,4.59996,2469.914,2019-8-24T15:20:45Z
2019-08-24T13:23:27Z,42.805,6.029,13.3046,4.60009,2469.937,2019-8-24T15:23:48Z
2019-08-24T13:26:30Z,42.805,6.029,13.3031,4.59988,2469.947,2019-8-24T15:26:52Z
2019-08-24T13:29:33Z,42.805,6.029,13.3024,4.60016,2469.947,2019-8-24T15:29:55Z
2019-08-24T13:32:36Z,42.805,6.029,13.3024,4.59990,2469.96,2019-8-24T15:32:58Z
2019-08-24T13:35:40Z,42.805,6.029,13.3029,4.59996,2469.923,2019-8-24T15:36:01Z
2019-08-24T13:38:43Z,42.805,6.029,13.3023,4.60016,2469.947,2019-8-24T15:39:04Z
2019-08-24T13:41:47Z,42.805,6.029,13.3006,4.60004,2469.947,2019-8-24T15:42:08Z
2019-08-24T13:44:50Z,42.805,6.029,13.3004,4.59998,2469.937,2019-8-24T15:45:11Z
2019-08-24T13:47:53Z,42.805,6.029,13.3009,4.59988,2469.96,2019-8-24T15:48:14Z
2019-08-24T13:50:56Z,42.805,6.029,13.3011,4.59991,2469.96,2019-8-24T15:51:18Z
2019-08-24T13:53:59Z,42.805,6.029,13.3032,4.59995,2469.914,2019-8-24T15:54:21Z
2019-08-24T13:57:03Z,42.805,6.029,13.3027,4.59988,2469.937,2019-8-24T15:57:24Z
2019-08-24T14:00:06Z,42.805,6.029,13.3011,4.60006,2469.923,2019-8-24T16:00:27Z
2019-08-24T14:03:09Z,42.805,6.029,13.3039,4.60006,2469.923,2019-8-24T16:03:30Z
2019-08-24T14:06:12Z,42.805,6.029,13.3044,4.60006,2469.96,2019-8-24T16:06:34Z
2019-08-24T14:09:15Z,42.805,6.029,13.3026,4.59986,2469.937,2019-8-24T16:09:37Z
2019-08-24T14:12:19Z,42.805,6.029,13.3019,4.59997,2469.9,2019-8-24T16:12:40Z
2019-08-24T14:15:22Z,42.805,6.029,13.3026,4.59998,2469.96,2019-8-24T16:15:43Z
2019-08-24T14:18:25Z,42.805,6.029,13.3012,4.60006,2469.96,2019-8-24T16:18:46Z
2019-08-24T14:21:28Z,42.805,6.029,13.3023,4.59988,2469.914,2019-8-24T16:21:50Z
2019-08-24T14:24:31Z,42.805,6.029,13.3011,4.59999,2469.96,2019-8-24T16:24:53Z
2019-08-24T14:27:35Z,42.805,6.029,13.3019,4.60010,2469.947,2019-8-24T16:27:56Z
2019-08-24T14:30:38Z,42.805,6.029,13.3046,4.59996,2469.947,2019-8-24T16:30:59Z
2019-08-24T14:33:41Z,42.805,6.029,13.3005,4.59996,2469.923,2019-8-24T16:34:02Z
2019-08-24T14:36:44Z,42.805,6.029,13.3039,4.60002,2469.937,2019-8-24T16:37:06Z
2019-08-24T14:39:47Z,42.805,6.029,13.3031,4.59999,2469.923,2019-8-24T16:40:09Z
2019-08-24T14:42:51Z,42.805,6.029,13.3028,4.60001,2469.923,2019-8-24T16:43:12Z
2019-08-24T14:45:54Z,42.805,6.029,13.3024,4.59996,2469.96,2019-8-24T16:46:15Z
2019-08-24T14:48:57Z,42.805,6.029,13.3029,4.59988,2469.947,2019-8-24T16:49:18Z
2019-08-24T14:52:00Z,42.805,6.029,13.3027,4.59999,2469.97,2019-8-24T16:52:22Z
2019-08-24T14:55:03Z,42.805,6.029,13.3014,4.60001,2469.96,2019-8-24T16:55:25Z
2019-08-24T14:58:07Z,42.805,6.029,13.3005,4.59988,2469.923,2019-8-24T16:58:28Z
2019-08-24T15:01:10Z,42.805,6.029,13.3011,4.60001,2469.96,2019-8-24T17:01:31Z
2019-08-24T15:04:13Z,42.805,6.029,13.3009,4.59995,2469.96,2019-8-24T17:04:34Z
2019-08-24T15:07:16Z,42.805,6.029,13.3015,4.59998,2469.96,2019-8-24T17:07:38Z
2019-08-24T15:10:19Z,42.805,6.029,13.3018,4.59994,2469.937,2019-8-24T17:10:41Z
2019-08-24T15:13:23Z,42.805,6.029,13.3008,4.59988,2469.923,2019-8-24T17:13:44Z